Maryland Science Center, MD

1:40 AM EST on December 06, 2019 (GMT -0500)
Maryland Science Center

Weather History for KDMH - October, 2019

Change the Weather History Date:

Thursday, October 3, 2019

  Actual Average Record
Temperature  
Mean Temperature 76 °F 65 °F  
Max Temperature 82 °F 73 °F 86 °F (2002)
Min Temperature 70 °F 56 °F 41 °F (2003)
Degree Days  
Heating Degree Days 0 3  
Month to date heating degree days 0 9  
Since 1 July heating degree days 0 27  
Cooling Degree Days 11 3  
Month to date cooling degree days 44 9  
Year to date cooling degree days 2033 1634  
Growing Degree Days 26 (Base 50)    
Moisture  
Dew Point 67 °F    
Average Humidity 74    
Maximum Humidity 90    
Minimum Humidity 58    
Precipitation  
Precipitation 0.00 in 0.11 in 0.25 in (2010)
Month to date precipitation 0.00 0.33  
Year to date precipitation 30.87 31.79  
Sea Level Pressure  
Sea Level Pressure 29.98 in    
Wind  
Wind Speed - (North)    
Max Wind Speed -    
Max Gust Speed -    
T = Trace of Precipitation, MM = Missing Value Source: NWS Daily Summary

Daily Weather History Graph

Daily Weather History Graph

Search for Another Location

Airport or City:

Astronomy

Oct. 03, 2019 Rise Set
Actual Time 7:04 AM EDT 6:46 PM EDT
Civil Twilight 6:37 AM EDT 7:12 PM EDT
Nautical Twilight 6:06 AM EDT 7:43 PM EDT
Astronomical Twilight 5:35 AM EDT 8:15 PM EDT
Moon 12:31 PM EDT (10/3) 10:25 PM EDT (10/3)
Length of Visible Light 12h 35m
Length of Day
11h 42m
Waxing Crescent, 29% of the Moon is Illuminated
Oct 3
Waxing Crescent
Oct 5
First Quarter
Oct 13
Full
Oct 21
Last Quarter
Oct 27
New

Hourly Weather History & Observations

Time (EDT) Temp. Heat Index Dew Point Humidity Pressure Visibility Wind Dir Wind Speed Gust Speed Precip Events Conditions
1:54 AM 81.0 °F 83.3 °F 66.9 °F 62% 29.91 in - North - - N/A   Unknown
2:54 AM 79.0 °F - 66.9 °F 66% 29.92 in - North - - N/A   Unknown
3:54 AM 78.1 °F - 66.9 °F 68% 29.94 in - North - - N/A   Unknown
4:54 AM 75.9 °F - 68.0 °F 76% 29.94 in - North - - N/A   Unknown
5:54 AM 75.9 °F - 69.1 °F 79% 29.98 in - North - - N/A   Unknown
6:54 AM 73.9 °F - 68.0 °F 82% 29.99 in - North - - N/A   Unknown
8:54 AM 72.0 °F - 66.0 °F 81% 30.03 in - North - - N/A   Unknown
9:54 AM 71.1 °F - 64.9 °F 81% 30.05 in - North - - N/A   Unknown
10:54 AM 71.1 °F - 66.0 °F 84% 30.04 in - North - - N/A   Unknown
11:54 AM 71.1 °F - 66.0 °F 84% 30.04 in - North - - N/A   Unknown
12:54 PM 71.1 °F - 66.0 °F 84% 30.03 in - North - - N/A   Unknown
1:54 PM 71.1 °F - 66.0 °F 84% 30.02 in - North - - N/A   Unknown
2:54 PM 71.1 °F - 64.9 °F 81% 30.01 in - North - - N/A   Unknown
3:54 PM 71.1 °F - 66.0 °F 84% 30.00 in - North - - N/A   Unknown
4:54 PM 71.1 °F - 66.0 °F 84% 29.99 in - North - - N/A   Unknown
5:54 PM 70.0 °F - 66.9 °F 90% 29.98 in - North - - N/A   Unknown
6:54 PM 70.0 °F - 66.9 °F 90% 29.97 in - North - - N/A   Unknown
7:54 PM 71.1 °F - 66.9 °F 87% 29.97 in - North - - N/A   Unknown
8:54 PM 71.1 °F - 66.9 °F 87% 29.96 in - North - - N/A   Unknown
9:54 PM 72.0 °F - 68.0 °F 87% 29.96 in - North - - N/A   Unknown
10:54 PM 72.0 °F - 68.0 °F 87% 29.95 in - North - - N/A   Unknown
11:54 PM 72.0 °F - 68.0 °F 87% 29.95 in - North - - N/A   Unknown